{"data":{"norad_id":44062,"intl_designator":"2019-010F","name":"ONEWEB-0011","alt_names":[],"object_type":"PAYLOAD","status":"ACTIVE","operator":null,"country":"UK","launch_date":"2019-02-27","launch_site_code":"FRGUI","launch_vehicle":null,"mission":null,"orbit_class":"UNKNOWN","rcs_meters":null,"size_class":null,"mass_kg":null,"dimensions":null,"purposes":["comms"],"wikipedia_slug":null,"has_3d_model":false,"image_url":null,"decayed_at":null,"tle_current":{"epoch":"2026-05-25T00:54:23.901696Z","epoch_age_seconds":71796,"freshness":"FRESH","line1":"1 44062U 19010F   26145.03777664 -.00000058  00000+0 -18866-3 0  9991","line2":"2 44062  87.9002 263.8055 0001772 105.2034 254.9293 13.15549226348372","mean_motion":13.15549226,"eccentricity":0.0001772,"inclination_deg":87.9002,"raan_deg":263.8055,"arg_perigee_deg":105.2034,"mean_anomaly_deg":254.9293,"bstar":-0.00018866,"rev_number":34837,"period_min":109.45998610621,"perigee_km":1200.425011622,"apogee_km":1203.1113300145,"semimajor_km":7579.9051708182,"source":"CELESTRAK","updated_at":"2026-05-25T13:38:22.332066Z"}}}